OpenBCM V1.07b12 (Linux)

Packet Radio Mailbox

DB0FHN

[JN59NK Nuernberg]

 Login: GUEST





  
I0OJJ  > KEPS     26.02.25 06:12l 329 Lines 15740 Bytes #999 (0) @ AMSAT
BID : ORB25057.1
Read: DJ6UX GUEST
Subj: 2Line Orbital Elements 25057.AMSAT
Path: DB0FHN<DB0FFL<OE5XBL<OE6XPE<DB0ERF<DK0WUE<PD0LPM<PI8ZTM<I0OJJ
Sent: 250226/0345z @:I0OJJ.ITA.EU [Rome] obcm1.08-6-g5b69
From: I0OJJ @ I0OJJ.ITA.EU (Gustavo)
To:   KEPS @ AMSAT
X-Info: This message was generated automatically


QST de W1STR

AMSAT Orbital Elements for Amateur Satellites in TLE Format
From Orbital Analysis Office
New England Sci-Tech STEM Education Center
Natick, MA February 26, 2025
To all radio amateurs


These element sets describe the orbits of various satellites 
in use by the amateur radio community. For details see:
www.amsat.org/keplerian-elements-formats/

A daily update of element sets is available at:
www.amsat.org/tle/daily-bulletin.txt
or without bulletin text:
www.amsat.org/tle/dailytle.txt


AO-07
1 07530U 74089B   25056.77322861 -.00000016  00000-0  19053-3 0  9996
2 07530 101.9944  59.9287 0012012 321.3108 212.3982 12.53686601301053
UO-11
1 14781U 84021B   25056.45005264  .00004930  00000-0  53245-3 0  9998
2 14781  97.7409  24.9975 0006896 332.9284  27.1573 14.88775299186140
AO-27
1 22825U 93061C   25056.43863101  .00000347  00000-0  14961-3 0  9990
2 22825  98.7518 117.4116 0009303  62.2435 297.9690 14.30736529638826
FO-29
1 24278U 96046B   25055.98456516  .00000021  00000-0  60572-4 0  9996
2 24278  98.5864 323.5922 0348917 253.5073 102.7466 13.53238452408620
NOAA-15
1 25338U 98030A   25056.82362321  .00000475  00000-0  21335-3 0  9999
2 25338  98.5471  84.3983 0009279 306.3831  53.6493 14.26893610393604
GO-32
1 25397U 98043D   25056.37108327  .00000327  00000-0  16176-3 0  9995
2 25397  98.9592  33.3786 0002039 122.1046 238.0330 14.24260679383453
ISS
1 25544U 98067A   25056.70382497  .00025705  00000-0  46566-3 0  9997
2 25544  51.6359 139.2011 0006115 314.3531  45.6956 15.49445513497872
NO-44
1 26931U 01043C   25056.34753900  .00000693  00000-0  29073-3 0  9990
2 26931  67.0512  37.3155 0005909 265.1630  94.8798 14.31632281222185
SO-50
1 27607U 02058C   25056.59060673  .00003746  00000-0  49221-3 0  9992
2 27607  64.5550 161.4018 0044064 359.8428   0.2655 14.81025771193824
CO-55
1 27844U 03031E   25056.47267815  .00000996  00000-0  45390-3 0  9998
2 27844  98.6794  66.0824 0010614 126.1140 234.1023 14.23839798123828
CO-57
1 27848U 03031J   25055.95128263  .00000902  00000-0  41798-3 0  9992
2 27848  98.6823  65.6510 0010264 142.9466 217.2423 14.23196750123538
RS-22
1 27939U 03042A   25056.82266484  .00003653  00000-0  59202-3 0  9995
2 27939  98.3150 223.8540 0011209 343.3335 123.8321 14.71830467145561
NOAA-18
1 28654U 05018A   25056.78470275  .00000455  00000-0  26489-3 0  9993
2 28654  98.8493 137.4109 0014987  66.7867 293.4882 14.13525818 19084
CO-58
1 28895U 05043F   25056.35689582  .00005551  00000-0  92706-3 0  9991
2 28895  98.2301 199.5537 0013922 277.2123  82.7500 14.70256944 31623
CO-65
1 32785U 08021C   25056.85750101  .00013394  00000-0  10118-2 0  9994
2 32785  97.7739  27.4528 0009827 194.4519 165.6426 15.02473838913561
AAUSAT2
1 32788U 08021F   25056.52285330  .00143096  00000-0  24627-2 0  9991
2 32788  97.6057  48.7986 0005294  76.4163 283.7678 15.50560171917170
CO-66
1 32791U 08021J   25056.87421562  .00025822  00000-0  14035-2 0  9990
2 32791  97.7193  34.9497 0005868 137.2819 222.8869 15.14457629914852
RS-30
1 32953U 08025A   25056.90560505  .00000051  00000-0  30031-3 0  9991
2 32953  82.5013 291.6775 0018694 272.8076  87.0864 12.43159356760645
NOAA-19
1 33591U 09005A   25056.84497277  .00000407  00000-0  24134-3 0  9999
2 33591  99.0111 120.9156 0012842 298.1507  61.8367 14.13294516827450
SRMSAT
1 37841U 11058D   25056.38111188  .00000723  00000-0  24974-3 0  9998
2 37841  19.9724  65.0726 0011727   0.0091  28.9171 14.11370168690376
ZACUBE-1
1 39417U 13066B   25056.83969019  .00013701  00000-0  12354-2 0  9992
2 39417  97.7682  14.5996 0047323  40.7835 319.6911 14.94800711609409
Delfi-N3xt
1 39428U 13066N   25056.48622572  .00021434  00000-0  22932-2 0  9990
2 39428  97.8373 335.4650 0088440 344.2813  15.5660 14.85863891603780
GOMX-1
1 39430U 13066Q   25056.90308309  .00005419  00000-0  85388-3 0  9999
2 39430  97.6987 281.8840 0134328 163.5507 197.0122 14.66907874600208
LO-74
1 39440U 13066AA  25056.80521442  .00009507  00000-0  99381-3 0  9994
2 39440  97.8397   2.2572 0064578 160.4450 199.9265 14.88324999607194
AO-73
1 39444U 13066AE  25056.83337824  .00020102  00000-0  16044-2 0  9998
2 39444  97.7518  18.6934 0042552  18.8461 341.4326 14.99593443608615
DTUSAT-2
1 40030U 14033W   25056.85659312  .00017880  00000-0  12375-2 0  9999
2 40030  98.0433  23.9082 0011425  57.4265 302.8062 15.05690252581282
EO-80
1 40032U 14033Y   25056.15151006  .00019025  00000-0  13141-2 0  9996
2 40032  98.0325  22.9707 0009020  11.2386 348.9039 15.05772447580648
XW-2C
1 40906U 15049H   25047.62605869  .06460715  25777-5  82494-3 0  9990
2 40906  97.4284  83.7622 0006300 238.5188 121.5494 16.35922890522636
LILACSAT-2
1 40908U 15049K   25056.85551235  .00021392  00000-0  62459-3 0  9998
2 40908  97.5156  74.8947 0010692 161.3146 198.8492 15.35288096522293
IO-86
1 40931U 15052B   25038.81889873  .00001817  00000-0  15548-3 0  9993
2 40931   6.0001 108.1159 0012838 187.7041 172.2889 14.78568669506492
Horyu-4
1 41340U 16012D   25056.82173302  .00034633  00000-0  11404-2 0  9997
2 41340  31.0000 106.5691 0006701  75.8246 284.3142 15.30269480496845
Lapan A3
1 41603U 16040E   25056.85956486  .00007595  00000-0  27470-3 0  9993
2 41603  97.1394  65.6016 0009253 281.2601  78.7600 15.28660726481938
CAS-2T
1 41847U 16066G   25056.55509522  .00004571  00000-0  65641-3 0  9996
2 41847  98.4304 131.9132 0348692 133.0105 230.0871 14.43017438436019
CAS-4B
1 42759U 17034B   25056.81240689  .00063282  00000-0  11415-2 0  9993
2 42759  43.0092 213.7730 0018283 284.8668  75.0167 15.48719424426434
CAS-4A
1 42761U 17034D   25056.70976761  .00068087  00000-0  12039-2 0  9992
2 42761  43.0131 212.2776 0019537 290.3997  69.4764 15.49231531426434
TechnoSat
1 42829U 17042E   25056.72978933  .00008389  00000-0  66941-3 0  9992
2 42829  97.3883 230.4517 0011875 278.6135  81.3743 15.00474008415141
AO-91
1 43017U 17073E   25056.64097669  .00017407  00000-0  93143-3 0  9990
2 43017  97.5482 290.1113 0181507 159.6245 201.2345 15.01966467393594
S-Net D
1 43186U 18014G   25056.46676326  .00013297  00000-0  82052-3 0  9996
2 43186  97.5730 320.5034 0008187 213.3885 146.6829 15.10014062386650
S-Net B
1 43187U 18014H   25056.60345307  .00012636  00000-0  78010-3 0  9990
2 43187  97.5733 320.6050 0009090 208.5975 151.4756 15.10000749386675
S-Net A
1 43188U 18014J   25056.46747862  .00013263  00000-0  81821-3 0  9998
2 43188  97.5743 320.6079 0008900 209.6259 150.4467 15.10018150386655
S-Net C
1 43189U 18014K   25056.47308164  .00012373  00000-0  76394-3 0  9998
2 43189  97.5758 320.6099 0010507 202.1604 157.9172 15.09992250385207
Ten-Koh
1 43677U 18084G   25056.54430860  .00008405  00000-0  68803-3 0  9991
2 43677  98.0875 224.6621 0009874 251.7876 108.2272 14.99544341344640
PO-101
1 43678U 18084H   25056.85060457  .00005532  00000-0  48070-3 0  9999
2 43678  98.0937 229.1117 0007835 273.8515  86.1810 14.97413215344858
QO-100
1 43700U 18090A   25056.83586516  .00000144  00000-0  00000+0 0  9990
2 43700   0.0040 182.5053 0001221 183.7149 116.3983  1.00271303 23141
MinXSS-2
1 43758U 18099A   25056.75509337  .00028685  00000-0  12995-2 0  9998
2 43758  97.5168 122.7297 0013704 158.4043 201.7773 15.20738414341162
AO-95
1 43770U 18099N   25056.09023571  .00021247  00000-0  11662-2 0  9997
2 43770  97.5087 115.4599 0011040 208.8681 151.1941 15.14110635340727
RANGE-A
1 43773U 18099R   25056.64966685  .00010024  00000-0  66432-3 0  9990
2 43773  97.4653 108.0861 0011815 181.1756 178.9446 15.07426868340552
MOVE-II
1 43780U 18099Y   25056.42350291  .00114580  00000-0  24968-2 0  9993
2 43780  97.4817 126.9288 0004279 171.6887 188.4432 15.43821030341584
SNUSat 2
1 43782U 18099AA  25056.60918337  .00017240  00000-0  10042-2 0  9999
2 43782  97.4771 113.5318 0013614 148.7088 211.4955 15.11994507340774
SnugLite
1 43784U 18099AC  25056.86877114  .00019400  00000-0  10568-2 0  9999
2 43784  97.4582 113.1725 0004622 143.5794 216.5753 15.14442352340928
ITASat 1
1 43786U 18099AE  25056.70968524  .00015337  00000-0  92624-3 0  9999
2 43786  97.4730 113.4192 0014790 200.8061 159.2569 15.10698272340767
EAGLET 1
1 43790U 18099AJ  25056.60111009  .00009500  00000-0  62804-3 0  9993
2 43790  97.4930 113.5653 0012610 179.2368 180.8882 15.07527724340391
ESEO
1 43792U 18099AL  25056.56405585  .00005061  00000-0  39118-3 0  9995
2 43792  97.4586 108.1266 0011248 150.2914 209.8952 15.01889982340203
CSIM
1 43793U 18099AM  25056.14965780  .00119297  00000-0  25833-2 0  9993
2 43793  97.4994 128.6526 0006753 148.5678 211.5975 15.43976119341385
JO-97
1 43803U 18099AX  25056.64789414  .00023572  00000-0  11905-2 0  9993
2 43803  97.4825 116.8290 0008893 144.2012 215.9819 15.17053072340995
Suomi 100
1 43804U 18099AY  25056.71109093  .00021171  00000-0  11262-2 0  9990
2 43804  97.4895 116.4405 0014050 146.4418 213.7708 15.15192278340952
ISAT
1 43879U 18111D   25055.98842629  .00037336  00000-0  15470-2 0  9999
2 43879  97.6034 328.4787 0009186 190.0953 170.0100 15.23768618337731
UWE-4
1 43880U 18111E   25056.19328404  .00031508  00000-0  14158-2 0  9992
2 43880  97.5971 327.8020 0012062 206.1478 153.9149 15.21018630337736
Sparrow
1 43881U 18111F   25056.70094299  .00037749  00000-0  15201-2 0  9995
2 43881  97.6156 331.7152 0005587 230.7544 129.3197 15.24751519335926
Prox-1
1 44339U 19036A   25056.27305406  .00025275  00000-0  35063-2 0  9997
2 44339  23.9989  25.3450 0007151 320.4372  39.5602 14.76471462302562
SONATE
1 44400U 19038Q   25056.56105863  .00094568  00000-0  11292-2 0  9994
2 44400  97.7073  72.3394 0006392 267.9850  92.0674 15.60698385313200
